Location: Baia Mare
(47.6567°N, 23.5850°E)
Time: 10:56:05
(UTC+03:00)

ISS - Pass Details

Date: 31 July 2018
Orbit: 402 x 408 km, 51.6° (Epoch: 19 July)

Event Time Altitude Azimuth Distance (km) Brightness Sun altitude
Rises 00:07:54 0° 293° (WNW) 2,325 0.7 -21.3°
Reaches altitude 10° 00:10:01 10° 288° (WNW) 1,464 -0.5 -21.5°
Enters shadow 00:11:58 31° 270° (W) 745 -2.4 -21.6°
